Location: Buena Vista
(37.7110°N, 119.7938°W)
Time: 20:54:00
(UTC+00:00)

USA 234 - Visible Passes

Search period start: 19 September 2024 00:00
Search period end: 29 September 2024 00:00
Orbit: 1100 x 1107 km, 123.0° (Epoch: 08 July)

Date Brightness Start Highest point End Pass type
(mag) Time Alt. Az. Time Alt. Az. Time Alt. Az.
19 Sep 4.2 02:59:23 10° SSE 03:05:34 45° SW 03:11:49 10° WNW visible
20 Sep 3.4 02:16:07 10° SE 02:22:41 89° SW 02:29:17 10° NW visible
20 Sep 5.3 04:01:32 10° SSW 04:06:09 20° WSW 04:10:48 10° WNW visible
21 Sep 4.2 03:16:51 10° SSE 03:23:02 45° SW 03:29:16 10° WNW visible
22 Sep 3.3 02:33:35 10° SE 02:40:09 88° SW 02:46:45 10° NW visible
22 Sep 5.2 04:19:01 10° SSW 04:23:37 20° WSW 04:28:15 10° WNW visible
23 Sep 4.1 03:34:34 11° SSE 03:40:30 44° SW 03:46:44 10° WNW visible
24 Sep 3.3 02:51:03 10° SE 02:57:37 88° SW 03:04:12 10° NW visible
24 Sep 5.2 04:37:56 14° SSW 04:41:05 20° WSW 04:45:41 10° WNW visible
25 Sep 3.6 02:08:41 10° ESE 02:14:58 51° NE 02:21:16 10° NW visible
25 Sep 4.1 03:53:52 21° S 03:57:58 44° SW 04:04:10 10° WNW visible
26 Sep 3.2 03:09:46 17° SE 03:15:04 88° SW 03:21:40 10° NW visible
26 Sep 5.0 04:57:09 19° SW 04:58:33 20° WSW 05:03:08 10° WNW visible
27 Sep 3.6 02:26:09 10° ESE 02:32:25 51° NE 02:38:44 10° NW visible
27 Sep 4.0 04:13:02 32° S 04:15:26 44° SW 04:21:38 10° WNW visible
28 Sep 3.2 03:28:52 29° SE 03:32:32 87° SW 03:39:07 10° NW visible
28 Sep 5.1 05:16:14 20° WSW 05:16:14 20° WSW 05:20:34 10° WNW visible
